Weather History for Eau Claire, WI

Change the Weather History Date:

Wednesday, January 2, 2013

  Actual Average Record
Temperature  
Mean Temperature 14 °F 15 °F  
Max Temperature 18 °F 23 °F 54 °F (1897)
Min Temperature 10 °F 6 °F -28 °F (1979)
Degree Days  
Heating Degree Days 51 50  
Month to date heating degree days 113 100  
Since 1 July heating degree days 3140 3276  
Cooling Degree Days 0 0  
Month to date cooling degree days 0 0  
Year to date cooling degree days 0 0  
Moisture  
Dew Point 9 °F    
Average Humidity 76    
Maximum Humidity 84    
Minimum Humidity 67    
Precipitation  
Precipitation T in 0.03 in 0.51 in (1966)
Month to date precipitation T 0.06  
Year to date precipitation T 0.06  
Snow  
Snow T in 0.30 in 7.20 in (1966)
Month to date snowfall T 0.7  
Since 1 July snowfall 21.8 16.5  
Snow Depth 4.00 in    
Sea Level Pressure  
Sea Level Pressure 30.03 in    
Wind  
Wind Speed 5 mph (SSW)    
Max Wind Speed 13 mph    
Max Gust Speed 15 mph    
Visibility 9 miles    
Events Snow    
T = Trace of Precipitation, MM = Missing Value Source: NWS Daily Summary

Daily Weather History Graph

Daily Weather History Graph

Search for Another Location

Airport:

Trip Planner

Search our weather history database for the weather conditions in past years. The results will help you decide how hot, cold, wet, or windy it might be!

Date:

Astronomy

Jan. 02, 2013 Rise Set
Actual Time 7:43 AM CST 4:36 PM CST
Civil Twilight 7:10 AM CST 5:10 PM CST
Nautical Twilight 6:33 AM CST 5:47 PM CST
Astronomical Twilight 5:57 AM CST 6:22 PM CST
Moon 10:25 PM CST (1/2) 10:11 AM CST (1/2)
Length of Visible Light 9h 59m
Length of Day
8h 53m
Waning Gibbous, 75% of the Moon is Illuminated
Jan 2
Waning Gibbous
Jan 4
Last Quarter
Jan 11
New
Jan 18
First Quarter
Jan 26
Full

Hourly Weather History & Observations

Time (CST) Temp. Windchill Dew Point Humidity Pressure Visibility Wind Dir Wind Speed Gust Speed Precip Events Conditions
12:56 AM 17.1 °F 6.6 °F 12.9 °F 84% 30.09 in 10.0 mi SSW 8.1 mph - N/A   Overcast
1:56 AM 17.1 °F 8.7 °F 12.9 °F 84% 30.08 in 10.0 mi SSW 5.8 mph - N/A   Overcast
2:56 AM 18.0 °F 6.1 °F 12.0 °F 78% 30.08 in 10.0 mi SSW 10.4 mph - N/A   Overcast
3:10 AM 17.6 °F 7.3 °F 12.2 °F 79% 30.02 in 10.0 mi SW 8.1 mph - N/A   Overcast
3:56 AM 16.0 °F 4.4 °F 10.9 °F 81% 30.07 in 10.0 mi South 9.2 mph - N/A   Overcast
4:26 AM 14.0 °F 2.9 °F 8.6 °F 79% 30.00 in 10.0 mi SSW 8.1 mph - N/A   Scattered Clouds
4:56 AM 12.9 °F 3.8 °F 9.0 °F 84% 30.06 in 10.0 mi South 5.8 mph - N/A   Partly Cloudy
5:38 AM 12.2 °F 2.9 °F 8.6 °F 85% 29.99 in 10.0 mi South 5.8 mph - N/A   Mostly Cloudy
5:56 AM 12.0 °F 2.7 °F 8.1 °F 84% 30.06 in 10.0 mi South 5.8 mph - N/A   Overcast
6:18 AM 12.2 °F 4.3 °F 8.6 °F 85% 29.99 in 10.0 mi SSE 4.6 mph - N/A   Overcast
6:56 AM 12.0 °F 2.7 °F 8.1 °F 84% 30.04 in 9.0 mi South 5.8 mph - N/A   Overcast
7:23 AM 10.4 °F 0.8 °F 6.8 °F 85% 29.99 in 10.0 mi SSE 5.8 mph - N/A   Overcast
7:34 AM 10.4 °F 0.8 °F 6.8 °F 85% 29.99 in 10.0 mi South 5.8 mph - N/A   Clear
7:56 AM 10.0 °F 3.6 °F 6.1 °F 84% 30.05 in 10.0 mi South 3.5 mph - N/A   Overcast
8:44 AM 10.4 °F 0.8 °F 6.8 °F 85% 30.00 in 10.0 mi South 5.8 mph - N/A   Overcast
8:56 AM 10.9 °F 1.4 °F 6.1 °F 81% 30.06 in 10.0 mi South 5.8 mph - N/A   Overcast
9:14 AM 10.4 °F 0.8 °F 5.0 °F 79% 30.00 in 10.0 mi South 5.8 mph - N/A   Overcast
9:56 AM 10.9 °F 0.2 °F 5.0 °F 77% 30.07 in 9.0 mi SW 6.9 mph - N/A   Overcast
10:39 AM 12.2 °F 2.9 °F 6.8 °F 79% 30.00 in 10.0 mi SSW 5.8 mph - N/A   Overcast
10:56 AM 12.0 °F 2.7 °F 5.0 °F 73% 30.06 in 10.0 mi South 5.8 mph - N/A   Overcast
11:56 AM 15.1 °F 7.7 °F 6.1 °F 68% 30.02 in 10.0 mi SSE 4.6 mph - N/A   Clear
12:23 PM 15.8 °F 10.2 °F 6.8 °F 68% 29.96 in 10.0 mi SSE 3.5 mph - N/A   Mostly Cloudy
12:56 PM 17.1 °F 10.0 °F 8.1 °F 68% 30.00 in 9.0 mi South 4.6 mph - N/A   Mostly Cloudy
1:35 PM 17.6 °F 8.2 °F 8.6 °F 68% 29.95 in 9.0 mi SSE 6.9 mph - N/A   Scattered Clouds
1:56 PM 18.0 °F 8.7 °F 10.0 °F 71% 30.00 in 8.0 mi SSW 6.9 mph - N/A   Mostly Cloudy
2:04 PM 17.6 °F 6.4 °F 10.4 °F 73% 29.95 in 7.0 mi South 9.2 mph - N/A   Mostly Cloudy
2:56 PM 18.0 °F 9.8 °F 10.0 °F 71% 30.02 in 7.0 mi West 5.8 mph - N/A   Overcast
3:56 PM 18.0 °F 11.1 °F 10.0 °F 71% 30.02 in 7.0 mi SSW 4.6 mph - N/A   Overcast
4:56 PM 16.0 °F 8.8 °F 8.1 °F 71% 30.04 in 9.0 mi West 4.6 mph - N/A   Overcast
5:56 PM 16.0 °F - 8.1 °F 71% 30.06 in 8.0 mi Calm Calm - N/A   Overcast
6:13 PM 15.8 °F - 8.6 °F 73% 30.00 in 8.0 mi Calm Calm - N/A   Overcast
6:56 PM 16.0 °F - 10.0 °F 77% 30.06 in 5.0 mi Calm Calm - 0.00 in Snow Light Snow
7:56 PM 15.1 °F - 10.0 °F 80% 30.06 in 5.0 mi Calm Calm - 0.00 in   Haze
8:56 PM 15.1 °F 9.4 °F 10.0 °F 80% 30.07 in 6.0 mi West 3.5 mph - N/A   Haze
9:56 PM 16.0 °F 7.4 °F 10.0 °F 77% 30.08 in 7.0 mi West 5.8 mph - N/A   Overcast
10:12 PM 15.8 °F 8.6 °F 10.4 °F 79% 30.02 in 7.0 mi West 4.6 mph - N/A   Overcast
10:22 PM 15.8 °F 6.1 °F 10.4 °F 79% 30.03 in 7.0 mi West 6.9 mph - N/A   Overcast
10:29 PM 15.8 °F 7.2 °F 10.4 °F 79% 30.03 in 7.0 mi West 5.8 mph - N/A   Overcast
10:56 PM 16.0 °F 10.4 °F 10.9 °F 81% 30.09 in 6.0 mi WNW 3.5 mph - N/A   Haze
11:41 PM 15.8 °F 10.2 °F 10.4 °F 79% 30.05 in 6.0 mi West 3.5 mph - N/A   Haze
11:56 PM 16.0 °F 8.8 °F 10.9 °F 81% 30.09 in 6.0 mi WSW 4.6 mph - N/A   Haze